Starlink 5897

operational
NORAD ID: 55931 Int'l Des: 2023-037 Owner: SPXS Country: US Constellation: starlink
LEOCIRCULAR

Über Starlink 5897

Beschreibung wird geladen...

Live-Position

3D-Globus wird geladen...

Nächste Überflüge

Höhenverlauf

Altitude vs Time

uPlot chart will show altitude changes over time

Zweizeiliger Elementsatz

1 55931U 23037T 26033.38761185 -.00000147 00000-0 -45277-5 0 9995
2 55931 70.0003 33.2891 0002802 265.1966 94.8873 14.98325825158200
Epoch: 2. Feb. 2026 • Age: 15 hours

Aktueller Status

Höhe 585.4 km
Geschwindigkeit 7.57 km/s
Subsatellitenpunkt 69.65°N, 1.04°W
Startdatum 17. März 2023
Alter 2.8 years
Typ internet

Technische Details

Klassifizierung Payload
Masse 305.00 kg
Trockenmasse 290.00 kg
Gesamtmasse 305.00 kg
Länge 0.20 m
Durchmesser 2.80 m
Spannweite 9.00 m
Form Box + pan
Hersteller SPXS
Bus-Typ Starlink
Phasenstatus In Orbit
Besitzer/Staat SPXS/US

Große Konstellationen

Loading constellations...